TimeEDT,TemperatureF,Dew PointF,Humidity,Sea Level PressureIn,VisibilityMPH,Wind Direction,Wind SpeedMPH,Gust SpeedMPH,PrecipitationIn,Events,Conditions,WindDirDegrees,DateUTC
12:47 AM,44.6,42.8,93,30.07,10.0,West,12.7,-,0.00,,Overcast,280,2012-10-08 04:47:00
12:54 AM,44.1,42.1,93,30.09,10.0,West,9.2,-,0.00,,Overcast,280,2012-10-08 04:54:00
1:54 AM,42.1,39.9,92,30.10,10.0,West,6.9,-,N/A,,Clear,270,2012-10-08 05:54:00
2:54 AM,41.0,39.9,96,30.09,10.0,West,6.9,-,N/A,,Clear,280,2012-10-08 06:54:00
3:54 AM,41.0,39.0,93,30.09,10.0,WNW,10.4,-,N/A,,Clear,300,2012-10-08 07:54:00
4:54 AM,41.0,39.0,93,30.12,10.0,WNW,9.2,-,N/A,,Clear,290,2012-10-08 08:54:00
5:54 AM,39.9,37.9,93,30.13,10.0,NW,5.8,-,N/A,,Clear,310,2012-10-08 09:54:00
6:54 AM,39.9,37.9,93,30.15,10.0,Calm,Calm,-,N/A,,Clear,0,2012-10-08 10:54:00
7:54 AM,42.1,39.0,89,30.19,10.0,WNW,6.9,-,N/A,,Clear,290,2012-10-08 11:54:00
9:54 AM,48.0,39.0,71,30.24,10.0,WNW,8.1,-,N/A,,Clear,290,2012-10-08 13:54:00
10:54 AM,48.9,37.0,64,30.25,10.0,NNW,4.6,-,N/A,,Partly Cloudy,330,2012-10-08 14:54:00
11:25 AM,51.8,37.4,58,30.23,10.0,Variable,5.8,-,N/A,,Mostly Cloudy,0,2012-10-08 15:25:00
11:54 AM,50.0,37.9,63,30.25,10.0,Variable,3.5,-,N/A,,Mostly Cloudy,0,2012-10-08 15:54:00
12:47 PM,53.6,37.4,54,30.22,10.0,North,5.8,-,N/A,,Overcast,360,2012-10-08 16:47:00
12:54 PM,52.0,37.9,59,30.24,10.0,NW,6.9,-,N/A,,Mostly Cloudy,310,2012-10-08 16:54:00
1:54 PM,52.0,37.9,59,30.25,10.0,North,4.6,-,N/A,,Overcast,360,2012-10-08 17:54:00
2:54 PM,52.0,37.9,59,30.27,10.0,Calm,Calm,-,N/A,,Mostly Cloudy,0,2012-10-08 18:54:00
3:54 PM,52.0,37.9,59,30.27,10.0,SSW,4.6,-,N/A,,Scattered Clouds,200,2012-10-08 19:54:00
4:54 PM,52.0,39.0,61,30.25,10.0,Calm,Calm,-,N/A,,Overcast,0,2012-10-08 20:54:00
5:54 PM,51.1,39.9,66,30.28,10.0,Calm,Calm,-,N/A,,Scattered Clouds,0,2012-10-08 21:54:00
6:54 PM,50.0,41.0,71,30.31,10.0,Variable,3.5,-,N/A,,Partly Cloudy,0,2012-10-08 22:54:00
7:54 PM,50.0,41.0,71,30.30,10.0,Variable,3.5,-,N/A,,Partly Cloudy,0,2012-10-08 23:54:00
8:54 PM,48.9,41.0,74,30.30,10.0,Calm,Calm,-,N/A,,Clear,0,2012-10-09 00:54:00
9:54 PM,46.9,42.1,83,30.31,10.0,Calm,Calm,-,N/A,,Partly Cloudy,0,2012-10-09 01:54:00
10:51 PM,46.4,42.8,87,30.29,10.0,Calm,Calm,-,N/A,,Mostly Cloudy,0,2012-10-09 02:51:00
10:54 PM,46.9,44.1,90,30.31,10.0,NE,3.5,-,N/A,,Scattered Clouds,50,2012-10-09 02:54:00
11:54 PM,46.9,44.1,90,30.30,10.0,NE,3.5,-,N/A,,Overcast,40,2012-10-09 03:54:00